SBPV Airport Information

Runway Information
Runway 1 Length 7874 ft width 148 ft
Elevation 0 ft Threshold 0 ft Heading 0
Runway 19 Length 7874 ft Width 148 ft
Elevation 0 ft Threshold 0 ft Heading 0
Airport Frequencies
Type APP Name APP Frequency 119.1 MHZ
Type OPS Name OPS Frequency 122.5 MHZ
Type TWR Name TWR Frequency 118.7 MHZ
Airport Navaids
Type VOR-DME Name Porto Velho Frequency 112700 KHZ
Type NDB Name Porto Velho Frequency 385 KHZ
Airport Weather Information & NOTAM
ADDS - METARS form results

(0132 UTC 19 August 2018)
 
METAR text: SBPV 190100Z 00000KT 9999 FEW015 SCT070 27/22 Q1012
Conditions at: SBPV (PORTO VELHO(CV/M, BR) observed 0100 UTC 19 August 2018
Temperature: 27.0°C (81°F)
Dewpoint: 22.0°C (72°F) [RH = 74%]
Pressure (altimeter): 29.88 inches Hg (1012.0 mb)
Winds: calm
Visibility: 6 or more miles (10+ km)
Ceiling: at least 12,000 feet AGL
Clouds: few clouds at 1500 feet AGL
scattered clouds at 7000 feet AGL
Weather: no significant weather observed at this time